Terminal Aerodrome Forecast
Issued by NWS

Home | Current Version | Previous Version | Text Only | Print | Product List | Glossary On
Versions: 1 2 3 4 5 6 7 8 9 10 11 12 13 14 15 16 17 18 19 20 21 22
000
FTUS42 KTBW 022001 AAA
TAFPGD
TAF AMD
KPGD 022001Z 0220/0318 27011G21KT P6SM VCTS SCT025CB BKN250
     FM030000 24006KT P6SM VCSH SCT025 BKN250
     FM030700 16004KT P6SM VCSH SCT025 BKN250
     FM031500 23008KT P6SM VCTS SCT035CB BKN250=

USA.gov is the U.S. government's official web portal to all federal, state and local government web resources and services.